{"data":{"norad_id":67140,"epoch":"2026-05-25T03:45:44.567712Z","epoch_age_seconds":51575,"freshness":"FRESH","line1":"1 67140U 25301H   26145.15676583 -.00006664  00000+0 -84622-3 0  9996","line2":"2 67140  51.9014  99.9869 0000604 113.0949 247.0077 14.79925611 24881","mean_motion":14.79925611,"eccentricity":6.04e-5,"inclination_deg":51.9014,"raan_deg":99.9869,"arg_perigee_deg":113.0949,"mean_anomaly_deg":247.0077,"bstar":-0.00084622,"rev_number":2488,"period_min":97.302187981393,"perigee_km":629.13568967839,"apogee_km":629.9822193497,"semimajor_km":7007.695954514,"source":"CELESTRAK","updated_at":"2026-05-25T13:38:06.749894Z"}}